Date,TemperatureHighF,TemperatureAvgF,TemperatureLowF,DewpointHighF,DewpointAvgF,DewpointLowF,HumidityHigh,HumidityAvg,HumidityLow,PressureMaxIn,PressureMinIn,WindSpeedMaxMPH,WindSpeedAvgMPH,GustSpeedMaxMPH,PrecipitationSumIn
2013-1-1,40.4,38.2,36.6,40.4,38.2,36.6,100,100,100,30.54,30.39,0,0,0,0.00
2013-1-2,39.9,36.9,34.4,39.9,36.9,34.4,100,100,100,30.30,30.25,3,0,0,0.00
2013-1-3,38.4,36.6,34.3,38.4,36.6,34.3,100,100,100,30.25,30.11,3,0,0,0.12
2013-1-4,40.9,39.1,36.4,40.9,39.1,36.4,100,100,100,30.33,30.17,2,0,0,0.05
2013-1-5,43.3,41.3,38.3,43.3,41.3,38.3,100,100,100,30.19,30.03,6,3,0,0.04
2013-1-6,43.6,40.6,37.1,43.6,40.0,-99.9,100,99,93,30.08,29.91,5,2,0,0.24
2013-1-7,42.6,40.2,38.2,42.6,40.2,38.2,100,100,100,30.13,29.76,8,2,0,0.08
2013-1-8,43.4,39.0,34.8,43.4,39.0,34.8,100,100,100,30.15,29.52,5,2,0,0.00
2013-1-9,42.6,40.2,37.5,42.6,39.7,-99.9,100,100,85,29.95,29.58,4,0,0,0.00
2013-1-10,38.9,35.2,31.9,37.7,33.7,31.0,100,95,75,30.20,29.94,4,-7,0,0.00
2013-1-11,33.7,31.2,29.2,32.0,29.6,27.4,100,94,79,30.35,30.21,1,0,0,0.00
2013-1-12,34.6,31.6,29.7,33.0,30.8,28.6,100,97,87,30.46,30.35,3,0,0,0.00
2013-1-13,36.2,33.2,29.9,35.2,32.2,28.1,100,96,89,30.50,30.45,3,-258,0,0.00
2013-1-14,38.2,36.0,33.8,38.2,36.0,33.8,100,100,100,30.61,30.48,4,1,0,0.00
2013-1-15,41.5,38.4,36.8,41.5,38.4,36.8,100,100,100,30.73,30.61,3,2,0,0.00
2013-1-16,39.9,38.2,36.8,39.7,38.1,36.8,100,100,95,30.72,30.57,6,1,0,0.00
2013-1-17,38.8,37.8,37.0,38.7,37.7,37.0,100,100,98,30.57,30.31,3,1,0,0.00
2013-1-18,40.0,37.8,36.7,38.9,37.5,36.6,100,99,91,30.38,30.30,3,1,0,0.00
2013-1-19,38.9,37.3,34.9,38.9,37.3,34.9,100,100,100,30.44,30.38,4,1,0,0.00
2013-1-20,37.7,34.2,32.0,37.7,34.2,32.0,100,100,100,30.45,30.33,4,1,0,0.00
2013-1-21,35.3,31.9,28.0,35.3,31.9,28.0,100,100,100,30.33,30.16,4,0,0,0.00
2013-1-22,37.3,35.1,33.0,37.3,35.1,33.0,100,100,100,30.17,29.95,2,0,0,0.00
2013-1-23,40.9,38.7,36.0,40.9,38.7,36.0,100,100,100,30.11,29.83,2,1,0,0.00
2013-1-24,40.3,39.2,37.2,40.3,39.2,37.2,100,100,100,30.18,29.96,2,1,0,0.00
2013-1-25,44.2,42.0,39.8,44.2,42.0,39.8,100,100,100,30.03,29.88,2,0,0,0.00
2013-1-26,41.8,40.2,37.9,41.8,40.2,37.9,100,100,100,30.02,29.85,2,1,0,0.00
2013-1-27,40.5,37.5,35.5,40.5,37.5,35.5,100,100,100,30.02,29.96,2,1,0,0.00
2013-1-28,41.2,38.9,36.4,41.2,38.9,36.4,100,100,99,30.08,29.99,2,1,0,0.00
2013-1-29,44.7,40.9,37.0,44.7,40.9,37.0,100,100,97,30.31,30.08,2,1,0,0.00
2013-1-30,44.4,42.3,41.0,44.4,42.3,41.0,100,100,100,30.39,30.31,1,0,0,0.00
2013-1-31,46.4,43.7,41.7,46.4,43.7,41.7,100,100,100,30.38,30.27,1,0,0,0.00
2013-2-1,45.1,42.7,41.3,45.1,42.7,41.3,100,100,100,30.48,30.37,1,0,0,0.00
2013-2-2,43.2,41.6,40.4,43.2,41.6,40.4,100,100,100,30.48,30.27,2,0,0,0.00
2013-2-3,43.3,41.5,40.3,43.3,41.5,40.3,100,100,100,30.30,30.14,2,1,0,0.00
2013-2-4,45.9,43.1,40.4,45.9,43.1,40.4,100,100,100,30.15,29.79,2,0,0,0.00
2013-2-5,45.0,42.8,40.7,45.0,42.8,40.7,100,100,100,29.79,29.68,0,0,0,0.00
2013-2-6,44.0,41.8,39.8,43.9,41.8,39.8,100,100,93,29.93,29.68,2,0,0,0.00
2013-2-7,43.3,40.9,38.3,43.3,40.6,38.3,100,99,82,30.24,29.67,2,0,0,0.00
2013-2-8,44.4,40.3,37.2,42.6,39.4,37.2,100,97,83,30.33,30.25,3,1,0,0.00
2013-2-9,44.9,41.7,37.9,44.4,41.5,37.9,100,99,93,30.38,30.29,3,1,0,0.00
2013-2-10,45.1,43.1,41.5,44.9,43.0,41.5,100,100,93,30.40,30.35,1,0,0,0.00
2013-2-12,45.7,43.2,41.5,44.5,43.0,41.5,100,99,95,30.26,30.21,1,0,0,0.00
2013-2-13,46.8,42.3,38.2,44.0,40.7,38.2,100,94,76,30.48,30.26,3,1,0,0.00
2013-2-14,43.9,42.6,41.0,43.9,42.6,41.0,100,100,100,30.61,30.46,2,0,0,0.00
2013-2-15,45.8,43.5,42.1,45.8,43.5,42.1,100,100,100,30.60,30.19,1,0,0,0.00
2013-2-16,47.4,43.0,38.5,47.3,42.4,36.6,100,98,84,30.21,30.08,0,0,0,0.00
2013-2-17,38.7,36.3,34.7,38.7,36.2,34.7,100,100,96,30.23,30.21,0,0,0,0.00
2013-2-24,-200.0,0.0,200.0,-99.9,-99.9,-99.9,0,0,100,29.99,29.99,0,-999,0,0.00
2013-6-11,-200.0,0.0,200.0,-99.9,-99.9,-99.9,0,0,100,29.90,29.89,0,-999,0,0.00